星链-5618 (STARLINK-5618 )

导读 | 星芒AI

STARLINK-5618 是 SpaceX Starlink 卫星互联网项目中的一颗低轨通信卫星。它属于 Starlink 群体部署的一部分,旨在为全球用户提供高速、低延迟的互联网服务。该卫星采用可重复使用的设计,配备先进通信设备,支持 Ku 和 Ka 频段传输。它运行在约 550 公里的轨道高度,与其他 Starlink 卫星协同工作,提升网络覆盖与连接质量。该项目致力于改善偏远地区的网络接入,推动全球数字包容。

基本信息
目录编号:
55415
目录名称:
STARLINK-5618
国际标识:
2023-014AA
轨道中心:
EARTH
卫星名称:
星链-5618
卫星全名:
星链-5618 (STARLINK-5618 )
卫星状态:
已陨落 最后检测时间 2025-03-16
发射日期:
2023-01-31 UTC
国别 :
美国 (US)
星等 :
--
轨道信息
数据来源 国际轨道数据
星历时间: 2025-03-16T08:37:28+0800
轨道信息已过期280天
半长轴: 6523.721km
偏心率: 0.0009471
轨道倾角: 69.975°
近地点辐角 267.807°
升交点赤经 250.369°
平近点角 233.988°
近地点: 139.407km
远地点: 151.765km
周期: 87.398分钟
每日圈数: 16.476303
详细信息
固有亮度:
5
最大亮度:
2.5
卫星平台:
Starlink v1.5
覆盖范围:
全球
运营商:
太空探索技术公司
运营商所在国:
美国
制造商(研发单位):
太空探索技术公司
制造商所在国:
美国
使用方式:
暂无
卫星简介
星链(Starlink)计划是由太空探索技术公司(SpaceX)提出的一个巨型低轨卫星互联网星座项目,计划在2019年至2024年间在太空搭建由约1.2万颗卫星组成的“星链”网络,其中1584颗将部署在地球上空550千米处的近地轨道,并从2020年开始工作。该卫星仍在工作。